#timestamp,LO_Frequency,Hit,StdDev 
1604052015.3,286046996.9,N
1604052035.2,286047002.4,N
1604052055.9,286047001.3,N
1604052075.7,286047009.6,Y
1604052095.6,286047012.6,P
1604052115.4,286047013.0,N
1604052135.3,286047017.0,N
1604052155.1,286047013.5,N
1604052156.0,286047013.5,N
1604052175.8,286047010.8,N
1604052195.7,286047006.7,N
1604052215.5,286047007.8,N
1604052235.3,286047010.0,N
1604052255.2,286047008.0,N
1604052275.0,286047008.9,N
1604052306.0,286047004.3,E
1604052315.9,286047002.2,N
1604052335.7,286047001.9,P
1604052355.5,286047005.1,P
1604052375.4,286047010.2,Y
1604052395.2,286047003.8,P
1604052415.1,286046998.5,P
1604052416.0,286046998.5,N
1604052435.8,286046996.8,N
1604052455.6,286046993.3,N
1604052475.5,286046994.5,N
1604052495.3,286046992.6,N
1604052515.1,286046993.1,N
1604052535.9,286046990.6,N
1604052555.7,286046994.2,N
1604052575.6,286046993.5,N
1604052595.4,286046995.7,N
1604052615.2,286046996.1,N
1604052635.1,286046995.2,N
1604052636.0,286046995.2,N
1604052655.8,286046995.9,N
1604052675.7,286046989.8,Y
1604052695.5,286046997.8,P
1604052715.3,286047004.2,P
1604052735.2,286047008.3,N
1604052755.0,286047004.6,N
1604052755.9,286047004.6,N
1604052775.7,286047005.1,N
1604052795.6,286047005.6,N
1604052815.4,286047002.3,N
1604052835.3,286047000.7,N
1604052855.1,286046996.9,N
1604052856.0,286046996.9,N
1604052875.8,286046995.9,N
1604052895.7,286046992.4,N
1604052915.5,286046989.4,N
1604052935.4,286046986.1,N
1604052955.2,286046989.3,N
1604052975.0,286046985.7,N
1604052975.9,286046985.7,N
1604052995.8,286046985.0,N
1604053015.6,286046988.4,N
1604053035.5,286046991.2,N
1604053055.3,286046992.5,N
1604053075.1,286046988.5,N
1604053095.9,286046995.3,N
1604053115.7,286046999.8,N
1604053135.5,286047001.3,N
1604053155.4,286047003.7,N
1604053175.2,286047007.6,N
1604053195.1,286047007.3,N
1604053196.0,286047007.3,N
1604053215.8,286047007.5,N
1604053235.6,286046999.8,N
1604053255.5,286046997.9,N
1604053275.3,286046991.9,N
1604053295.1,286046996.1,N
1604053315.9,286046999.0,N
1604053335.7,286047004.9,N
1604053355.6,286047012.2,N
1604053375.4,286047007.0,N
1604053395.2,286047000.8,N
1604053415.1,286047001.1,N
1604053416.0,286047001.1,N
1604053435.8,286047005.7,N
1604053455.7,286047005.3,N
1604053475.5,286047005.0,N
1604053495.3,286047001.8,N
1604053515.2,286046997.7,N
1604053535.0,286046995.3,N
1604053535.9,286046995.3,N
1604053555.7,286046993.8,N
1604053575.6,286046998.0,N
1604053595.4,286047001.4,N
1604053615.3,286047003.3,N
1604053635.1,286047000.3,N
1604053636.0,286047000.3,N
1604053655.8,286046998.9,N
1604053675.7,286047002.4,N
1604053695.5,286047001.5,N
1604053715.3,286047003.8,N
1604053735.2,286047000.8,N
1604053755.0,286046993.3,N
1604053755.9,286046993.3,N
1604053775.8,286046989.6,N
1604053795.6,286046992.7,N
1604053815.4,286046998.0,N
1604053835.3,286046999.5,N
1604053855.1,286046998.3,N
1604053875.9,286047002.3,N
1604053895.7,286046998.9,N
1604053915.5,286046995.3,N
1604053935.4,286046994.9,N
1604053955.2,286046999.3,N
1604053975.0,286047000.8,N
1604053975.9,286047000.8,N
1604053995.8,286047000.6,N
1604054015.6,286047000.1,N
1604054035.5,286046996.7,N
1604054055.3,286046996.8,N
1604054075.1,286046995.1,N
1604054095.9,286046992.1,N
1604054115.7,286046989.0,Y
1604054135.6,286046991.1,P
1604054155.4,286046993.9,N
1604054175.2,286046994.6,N
1604054195.1,286046997.6,N
1604054196.0,286046997.6,N
1604054215.8,286047002.1,N
1604054235.6,286046999.8,N
1604054255.5,286046998.9,N
1604054275.3,286046993.5,N
1604054295.2,286046996.3,N
1604054315.9,286046994.0,N
1604054335.7,286046998.4,N
1604054355.6,286046998.7,N
1604054375.4,286047004.3,N
1604054395.2,286047000.4,N
1604054415.1,286047004.4,N
1604054416.0,286047004.4,N
1604054435.8,286047003.0,N
1604054455.7,286047003.9,N
1604054475.5,286047003.9,N
1604054495.3,286047001.2,N
1604054515.2,286046994.9,N
1604054535.0,286046990.9,N
1604054535.9,286046990.9,N
1604054555.8,286046991.1,N
1604054575.6,286046985.3,Y
1604054595.4,286046989.1,P
1604054615.3,286046991.0,N
1604054635.1,286046989.8,N
1604054655.8,286046992.4,N
1604054675.7,286046989.0,Y
1604054695.5,286046998.3,P
1604054715.4,286046995.5,N
1604054735.2,286046995.0,N
1604054755.0,286046997.6,N
1604054755.9,286046997.6,N
1604054775.8,286046991.4,Y
1604054795.6,286046991.1,P
1604054815.5,286046987.0,P
1604054835.3,286046987.6,P
1604054855.1,286046988.7,Y
1604054875.9,286047003.5,P
1604054895.7,286047011.7,N
1604054915.5,286047013.3,N
1604054935.4,286047015.5,N
1604054955.2,286047009.9,N
1604054975.1,286047004.6,N
1604054976.0,286047004.6,N
1604054995.8,286047002.4,N
1604055015.6,286046997.3,N
1604055035.5,286046996.9,N
1604055055.3,286046996.4,N
1604055075.2,286046994.8,N
1604055095.9,286046990.6,N
1604055115.7,286046986.0,N
1604055135.6,286046982.7,N
1604055155.4,286046984.2,N
1604055175.2,286046985.1,N
1604055195.1,286046984.6,N
1604055196.0,286046984.6,N
1604055215.8,286046983.1,N
1604055235.7,286046977.3,N
1604055255.5,286046980.0,N
1604055275.3,286046979.2,N
1604055295.2,286046975.1,N
1604055315.0,286046974.8,N
1604055315.9,286046974.8,N
1604055335.8,286046979.4,N
1604055355.6,286046976.2,N
1604055375.4,286046979.7,N
1604055395.3,286046976.2,N
1604055415.1,286046972.9,N
1604055435.8,286046973.8,N
1604055455.7,286046974.5,N
1604055475.5,286046976.5,N
1604055495.4,286046973.3,N
1604055515.2,286046973.6,N
1604055535.0,286046976.9,N
1604055535.9,286046976.9,N
1604055555.8,286046982.7,N
1604055575.6,286046987.5,N
1604055595.4,286046991.2,N
